ONEWEB-0059, 45162

Orbit data source: Space-Track

ONEWEB-0059, 45162 is a payload satellite owned by One Web (UK) in LEO that was launched on Thu, 06 Feb 2020 UTC via a SOYUZ-2-1B launch vehicle from the Tyuratam Missile And Space Complex (TTMTR). Payload-class satellites include a variety of spacecraft equipped with specific instruments for various scientific and technological missions. These include communications satellites like Starlink; space stations such as the ISS; scientific satellites like the Hubble; Earth observation satellites from companies like Planet Labs, Umbra, and HawkEye 360; GPS; miniature CubeSats for education and research; and military/defense satellites.

Loading next visibility...
Identifier
45162, 2020-008AH
Orbit
LEO
Country
Flag of UKUK
Related business
Manufacturer
One Web
Mission
Operational Commercial Communications
Bus & Motor
ARROW, Unknown motor
Mass
148 kg wet, ~140 kg dry
Launch date (UTC)
2020-02-06 (6 years ago)
Launch vehicle
SOYUZ-2-1B
Launch site
Tyuratam Missile And Space Complex (TTMTR)
Object type
Payload
Rocket body
Debris
Shape & HBR
Trap Box + 2 Pan, 6.7 m
Radar Cross Section
3.464 m², Large (>1 m²)

Expand to show TLE details & history
Last TLE update: 5 hours ago

TLE from 5 hours ago
0 ONEWEB-0059
1 45162U 20008AH  26035.11608065 -.00000165  00000-0 -50776-3 0  9993
2 45162  87.8754  62.7999 0001719  93.0021 267.1303 13.10376695290895
Epoch: 2026-02-04T02:47Z
TLE epoch observation values (Epoch: 2026-02-04T02:47:09.368Z)
Latitude
-0.00001°
Longitude
-113.27642°
Altitude
1,224.655 km
Speed
7.242 km/s
True Right ascension
04h 11m 11s
True Declination
0° 00' 00"
Sunlit
Object was in daylight at epoch
Visualization orbit readout
Latitude
Unknown
Longitude
Unknown
Altitude
Unknown
Speed
Unknown
Apparent Right ascension
Unknown
Apparent Declination
Unknown
Sunlit
N/A
Visualization observer readout
Local Sidereal Time
10:04:48
Azimuth
Unknown
Elevation
Unknown
Doppler factor
Unknown
Orbital elements
Apogee altitude
1,220.128 km
Perigee altitude
1,217.516 km
Semi-major axis
7,596.959 km
Eccentricity
0.00017
Inclination
87.8754°
RAAN
62.7999°
Arg. of periapsis
93.0021°
True anomaly
267.11063°
Mean anomaly
267.1303°
Eccentric anomaly
267.12046°
Mean motion
3.27781 °/min
Orbital period
109.83 mins
BSTAR
-0.00050776
Loading maneuver chart data...
Computing Atmospheric mass density...
Loading historical data...
Loading historical data...
Loading historical data...
Loading historical data...
Loading historical data...
Loading historical data...
Loading historical data...

Documentation

Showing up to 5 results
|